Date String (YYYY-MM-DD hh:mm:ss) UTC,Instrument flags,absolute air pressure of the measurement (hPa),sample flow rate (lpm),inlet stack bypass flow (lpm),air temperature of the measurement (°C),ambient temperature measured by the external sensor (°C),aerosol sample conditioner tube jacket temperature (°C),OPC LED temperature (°C),internal box temperature (°C),relative humidity of the measurement (%),span deviation,mass concentration of particles derived from Lorenz-Mie calculation of OPC scattering (μg/m³),mass concentration of particles derived from Lorenz-Mie calculation of OPC scattering (μg/m³),mass concentration of particles derived from Lorenz-Mie calculation of OPC scattering (μg/m³)
DateTimeUTC,F1_M11,P_M11,Q1_M11,Q2_M11,T1_M11,T2_M11,T3_M11,T4_M11,T5_M11,U1_M11,ZSPAN_M11,X0_M11,X2_M11,X1_M11
2023-08-22 13:00:00,SystemResetWarning,0835.9,4.99,000.00,028.4,027.2,000.0,036.8,030.2,19.6,0000.1,0013.60,0007.32,0006.13
2023-08-22 13:01:00,SystemResetWarning,0835.9,4.99,000.00,028.4,027.3,000.0,036.9,030.2,19.6,-000.2,0013.40,0007.32,0006.13
2023-08-22 13:02:00,SystemResetWarning,0835.9,5.00,000.00,028.5,027.4,000.0,036.9,030.2,19.5,-000.4,0012.59,0007.30,0006.12
2023-08-22 13:03:00,SystemResetWarning,0835.9,5.00,000.00,028.5,027.4,000.0,036.9,030.3,19.5,-000.8,0012.41,0007.28,0006.10
2023-08-22 13:04:00,SystemResetWarning,0835.9,5.00,000.00,028.6,027.2,000.0,036.9,030.3,19.5,-000.7,0012.41,0007.32,0006.10
2023-08-22 13:05:00,SystemResetWarning,0835.9,4.98,000.00,028.5,025.5,000.0,036.8,030.0,19.5,0000.0,0012.35,0007.30,0006.12
2023-08-22 13:06:00,SystemResetWarning,0835.9,5.03,000.00,028.4,024.1,000.0,036.7,029.7,19.6,0000.3,0012.21,0007.31,0006.15
2023-08-22 13:07:00,SystemResetWarning,0835.9,5.00,000.00,028.4,024.3,000.0,036.7,029.7,19.7,0000.3,0012.89,0007.33,0006.17
2023-08-22 13:08:00,SystemResetWarning,0835.9,5.00,000.00,028.3,024.6,000.0,036.7,029.6,19.7,-000.0,0013.35,0007.37,0006.18
2023-08-22 13:09:00,SystemResetWarning,0835.9,5.00,000.00,028.2,025.0,000.0,036.7,029.6,19.7,-000.1,0013.52,0007.39,0006.19
2023-08-22 13:10:00,SystemResetWarning,0835.9,5.00,000.00,028.2,025.4,000.0,036.7,029.7,19.8,0000.0,0013.53,0007.39,0006.19
2023-08-22 13:11:00,SystemResetWarning,0835.9,5.00,000.00,028.2,025.8,000.0,036.7,029.8,19.8,-000.2,0013.53,0007.44,0006.20
2023-08-22 13:12:00,SystemResetWarning,0835.9,5.00,000.00,028.2,026.1,000.0,036.7,029.9,19.8,-000.4,0013.54,0007.47,0006.22
2023-08-22 13:13:00,SystemResetWarning,0835.9,5.00,000.00,028.2,026.3,000.0,036.8,029.9,19.9,-000.2,0013.71,0007.50,0006.24
2023-08-22 13:14:00,SystemResetWarning,0835.9,5.01,000.00,028.3,026.6,000.0,036.8,030.0,19.7,-000.1,0013.80,0007.50,0006.26
2023-08-22 13:15:00,SystemResetWarning,0835.9,5.00,000.00,028.3,026.8,000.0,036.8,030.0,19.7,0000.6,0014.49,0007.54,0006.30
2023-08-22 13:16:00,SystemResetWarning,0835.9,5.00,000.00,028.3,026.9,000.0,036.8,030.1,19.6,0000.2,0014.81,0007.60,0006.31
2023-08-22 13:17:00,SystemResetWarning,0835.9,5.00,000.00,028.4,027.1,000.0,036.8,030.1,19.6,0000.5,0015.15,0007.66,0006.33
2023-08-22 13:18:00,SystemResetWarning,0835.9,4.99,000.00,028.4,027.2,000.0,036.8,030.2,19.5,0000.8,0014.96,0007.71,0006.35
2023-08-22 13:19:00,SystemResetWarning,0836.0,5.00,000.00,028.5,027.3,000.0,036.9,030.2,19.4,0001.3,0014.59,0007.73,0006.37
2023-08-22 13:20:00,SystemResetWarning,0836.1,4.99,000.00,028.5,027.4,000.0,036.9,030.2,19.5,0001.6,0015.31,0007.76,0006.37
2023-08-22 13:21:00,SystemResetWarning,0836.1,5.00,000.00,028.5,027.3,000.0,036.9,030.3,19.4,0001.5,0015.70,0007.80,0006.40
2023-08-22 13:22:00,SystemResetWarning,0836.1,5.00,000.00,028.5,025.7,000.0,036.8,030.1,19.4,0001.1,0016.49,0007.81,0006.41
2023-08-22 13:23:00,SystemResetWarning,0836.1,5.00,000.00,028.4,024.4,000.0,036.7,029.8,20.5,0001.4,0016.53,0007.77,0006.41
2023-08-22 13:24:00,SystemResetWarning,0836.0,5.00,000.00,028.4,024.4,000.0,036.6,029.7,19.8,0001.6,0017.19,0007.76,0006.43
2023-08-22 13:25:00,SystemResetWarning,0836.0,5.01,000.00,028.3,024.7,000.0,036.7,029.6,19.7,0001.7,0017.10,0007.76,0006.44
2023-08-22 13:26:00,SystemResetWarning,0836.1,5.00,000.00,028.2,025.1,000.0,036.7,029.6,19.9,0001.2,0016.60,0007.80,0006.45
2023-08-22 13:27:00,SystemResetWarning,0836.1,5.00,000.00,028.2,025.5,000.0,036.7,029.7,20.0,0001.5,0016.35,0007.78,0006.45
2023-08-22 13:28:00,SystemResetWarning,0836.1,5.00,000.00,028.2,025.9,000.0,036.7,029.8,20.6,0001.4,0016.21,0007.78,0006.45
2023-08-22 13:29:00,SystemResetWarning,0836.2,5.00,000.00,028.2,026.2,000.0,036.8,029.9,22.6,0001.2,0016.02,0007.76,0006.44
2023-08-22 13:30:00,SystemResetWarning,0836.2,5.00,000.00,028.3,026.4,000.0,036.8,030.0,23.1,0001.2,0016.89,0007.87,0006.47
2023-08-22 13:31:00,SystemResetWarning,0836.2,5.00,000.00,028.3,026.7,000.0,036.8,030.0,23.6,0001.1,0016.76,0007.93,0006.49
2023-08-22 13:32:00,SystemResetWarning,0836.2,5.00,000.00,028.3,026.8,000.0,036.8,030.1,23.2,0001.0,0016.43,0007.92,0006.50
2023-08-22 13:33:00,SystemResetWarning,0836.2,5.00,000.00,028.4,027.0,000.0,036.8,030.1,21.9,0000.8,0015.80,0007.95,0006.52
2023-08-22 13:34:00,SystemResetWarning,0836.2,5.00,000.00,028.4,027.1,000.0,036.8,030.2,21.3,0000.6,0015.86,0008.02,0006.55
2023-08-22 13:35:00,SystemResetWarning,0836.2,5.00,000.00,028.4,027.3,000.0,036.9,030.2,21.0,0000.5,0016.06,0008.13,0006.58
2023-08-22 13:36:00,SystemResetWarning,0836.2,4.99,000.00,028.5,027.4,000.0,036.9,030.3,20.2,0000.7,0016.49,0008.21,0006.61
2023-08-22 13:37:00,SystemResetWarning,0836.2,4.98,000.00,028.5,026.7,000.0,036.8,030.2,20.6,0000.7,0016.66,0008.22,0006.65
2023-08-22 13:38:00,SystemResetWarning,0836.2,5.01,000.00,028.5,024.9,000.0,036.7,029.9,20.7,0000.5,0017.12,0008.27,0006.67
2023-08-22 13:39:00,SystemResetWarning,0836.2,5.01,000.00,028.4,024.5,000.0,036.7,029.8,21.0,0000.5,0017.41,0008.29,0006.68
2023-08-22 13:40:00,SystemResetWarning,0836.2,5.00,000.00,028.3,024.8,000.0,036.7,029.7,21.0,0000.4,0017.51,0008.29,0006.70
2023-08-22 13:41:00,SystemResetWarning,0836.2,4.99,000.00,028.3,025.1,000.0,036.7,029.7,21.1,0000.4,0016.88,0008.20,0006.69
2023-08-22 13:42:00,SystemResetWarning,0836.2,5.00,000.00,028.2,025.5,000.0,036.7,029.7,21.3,0000.5,0016.68,0008.15,0006.69
2023-08-22 13:43:00,SystemResetWarning,0836.3,5.00,000.00,028.2,025.8,000.0,036.7,029.8,22.2,0000.9,0017.69,0008.18,0006.68
2023-08-22 13:44:00,SystemResetWarning,0836.3,4.99,000.00,028.3,026.1,000.0,036.8,029.9,21.5,0001.6,0018.09,0008.19,0006.68
2023-08-22 13:45:00,SystemResetWarning,0836.3,5.00,000.00,028.3,026.4,000.0,036.8,030.0,20.8,0001.9,0018.01,0008.16,0006.67
2023-08-22 13:46:00,SystemResetWarning,0836.4,5.00,000.00,028.3,026.6,000.0,036.8,030.0,21.0,0001.6,0017.49,0008.13,0006.67
2023-08-22 13:47:00,SystemResetWarning,0836.4,4.99,000.00,028.4,026.8,000.0,036.8,030.1,21.2,0001.3,0017.55,0008.09,0006.65
2023-08-22 13:48:00,SystemResetWarning,0836.4,4.99,000.00,028.4,027.0,000.0,036.8,030.1,21.9,0001.9,0017.53,0008.12,0006.64
2023-08-22 13:49:00,SystemResetWarning,0836.4,5.00,000.00,028.4,027.2,000.0,036.8,030.2,22.1,0002.1,0017.07,0008.10,0006.64
2023-08-22 13:50:00,SystemResetWarning,0836.4,5.02,000.00,028.5,027.3,000.0,036.9,030.2,22.3,0001.9,0016.77,0008.08,0006.63
2023-08-22 13:51:00,SystemResetWarning,0836.5,5.01,000.00,028.5,027.1,000.0,036.9,030.3,22.8,0002.1,0016.96,0008.05,0006.62
2023-08-22 13:52:00,SystemResetWarning,0836.4,4.98,000.00,028.5,025.7,000.0,036.8,030.1,23.5,0002.0,0017.84,0008.13,0006.63
2023-08-22 13:53:00,SystemResetWarning,0836.4,5.01,000.00,028.4,024.6,000.0,036.7,029.9,22.2,0002.0,0017.62,0008.10,0006.63
2023-08-22 13:54:00,SystemResetWarning,0836.5,5.01,000.00,028.4,024.8,000.0,036.7,029.8,22.5,0002.0,0016.62,0008.05,0006.63
2023-08-22 13:55:00,SystemResetWarning,0836.4,4.99,000.00,028.3,025.1,000.0,036.7,029.7,22.8,0001.7,0015.89,0008.01,0006.64
2023-08-22 13:56:00,SystemResetWarning,0836.4,5.00,000.00,028.3,025.5,000.0,036.7,029.8,23.2,0001.6,0016.09,0008.04,0006.65
2023-08-22 13:57:00,SystemResetWarning,0836.4,5.00,000.00,028.3,025.8,000.0,036.7,029.9,23.4,0001.9,0016.05,0008.06,0006.65
2023-08-22 13:58:00,SystemResetWarning,0836.5,5.01,000.00,028.3,026.1,000.0,036.8,029.9,22.5,0002.2,0016.14,0008.11,0006.66
2023-08-22 13:59:00,SystemResetWarning,0836.5,5.00,000.00,028.3,026.4,000.0,036.8,030.0,21.3,0001.9,0016.30,0008.07,0006.64
